Index of /20260504/WXO-DD/model_rdps/10km/00/036
Name Last modified Size Description
Parent Directory -
20260504T00Z_MSC_RDPS_AbsoluteVorticity_IsbL-0250_RLatLon0.09_PT036H.grib2 2026-05-04 02:51 731K
20260504T00Z_MSC_RDPS_AbsoluteVorticity_IsbL-0500_RLatLon0.09_PT036H.grib2 2026-05-04 02:51 563K
20260504T00Z_MSC_RDPS_AbsoluteVorticity_IsbL-0700_RLatLon0.09_PT036H.grib2 2026-05-04 02:51 633K
20260504T00Z_MSC_RDPS_AbsoluteVorticity_IsbL-0850_RLatLon0.09_PT036H.grib2 2026-05-04 02:51 798K
20260504T00Z_MSC_RDPS_AirTemp_AGL-120m_RLatLon0.09_PT036H.grib2 2026-05-04 02:51 381K
20260504T00Z_MSC_RDPS_AirTemp_AGL-2m_RLatLon0.09_PT036H.grib2 2026-05-04 02:51 629K
20260504T00Z_MSC_RDPS_AirTemp_AGL-40m_RLatLon0.09_PT036H.grib2 2026-05-04 02:51 396K
20260504T00Z_MSC_RDPS_AirTemp_AGL-80m_RLatLon0.09_PT036H.grib2 2026-05-04 02:51 388K
20260504T00Z_MSC_RDPS_AirTemp_IsbL-0001_RLatLon0.09_PT036H.grib2 2026-05-04 02:51 311K
20260504T00Z_MSC_RDPS_AirTemp_IsbL-0005_RLatLon0.09_PT036H.grib2 2026-05-04 02:51 293K
20260504T00Z_MSC_RDPS_AirTemp_IsbL-0010_RLatLon0.09_PT036H.grib2 2026-05-04 02:51 394K
20260504T00Z_MSC_RDPS_AirTemp_IsbL-0020_RLatLon0.09_PT036H.grib2 2026-05-04 02:51 416K
20260504T00Z_MSC_RDPS_AirTemp_IsbL-0030_RLatLon0.09_PT036H.grib2 2026-05-04 02:51 340K
20260504T00Z_MSC_RDPS_AirTemp_IsbL-0050_RLatLon0.09_PT036H.grib2 2026-05-04 02:51 320K
20260504T00Z_MSC_RDPS_AirTemp_IsbL-0100_RLatLon0.09_PT036H.grib2 2026-05-04 02:51 432K
20260504T00Z_MSC_RDPS_AirTemp_IsbL-0150_RLatLon0.09_PT036H.grib2 2026-05-04 02:51 420K
20260504T00Z_MSC_RDPS_AirTemp_IsbL-0175_RLatLon0.09_PT036H.grib2 2026-05-04 02:51 411K
20260504T00Z_MSC_RDPS_AirTemp_IsbL-0200_RLatLon0.09_PT036H.grib2 2026-05-04 02:51 414K
20260504T00Z_MSC_RDPS_AirTemp_IsbL-0225_RLatLon0.09_PT036H.grib2 2026-05-04 02:51 413K
20260504T00Z_MSC_RDPS_AirTemp_IsbL-0250_RLatLon0.09_PT036H.grib2 2026-05-04 02:51 418K
20260504T00Z_MSC_RDPS_AirTemp_IsbL-0275_RLatLon0.09_PT036H.grib2 2026-05-04 02:51 403K
20260504T00Z_MSC_RDPS_AirTemp_IsbL-0300_RLatLon0.09_PT036H.grib2 2026-05-04 02:51 411K
20260504T00Z_MSC_RDPS_AirTemp_IsbL-0350_RLatLon0.09_PT036H.grib2 2026-05-04 02:51 427K
20260504T00Z_MSC_RDPS_AirTemp_IsbL-0400_RLatLon0.09_PT036H.grib2 2026-05-04 02:51 431K
20260504T00Z_MSC_RDPS_AirTemp_IsbL-0450_RLatLon0.09_PT036H.grib2 2026-05-04 02:51 438K
20260504T00Z_MSC_RDPS_AirTemp_IsbL-0500_RLatLon0.09_PT036H.grib2 2026-05-04 02:51 449K
20260504T00Z_MSC_RDPS_AirTemp_IsbL-0550_RLatLon0.09_PT036H.grib2 2026-05-04 02:51 465K
20260504T00Z_MSC_RDPS_AirTemp_IsbL-0600_RLatLon0.09_PT036H.grib2 2026-05-04 02:51 444K
20260504T00Z_MSC_RDPS_AirTemp_IsbL-0650_RLatLon0.09_PT036H.grib2 2026-05-04 02:51 459K
20260504T00Z_MSC_RDPS_AirTemp_IsbL-0700_RLatLon0.09_PT036H.grib2 2026-05-04 02:51 487K
20260504T00Z_MSC_RDPS_AirTemp_IsbL-0750_RLatLon0.09_PT036H.grib2 2026-05-04 02:51 528K
20260504T00Z_MSC_RDPS_AirTemp_IsbL-0800_RLatLon0.09_PT036H.grib2 2026-05-04 02:51 586K
20260504T00Z_MSC_RDPS_AirTemp_IsbL-0850_RLatLon0.09_PT036H.grib2 2026-05-04 02:51 650K
20260504T00Z_MSC_RDPS_AirTemp_IsbL-0875_RLatLon0.09_PT036H.grib2 2026-05-04 02:51 539K
20260504T00Z_MSC_RDPS_AirTemp_IsbL-0900_RLatLon0.09_PT036H.grib2 2026-05-04 02:51 544K
20260504T00Z_MSC_RDPS_AirTemp_IsbL-0925_RLatLon0.09_PT036H.grib2 2026-05-04 02:51 668K
20260504T00Z_MSC_RDPS_AirTemp_IsbL-0950_RLatLon0.09_PT036H.grib2 2026-05-04 02:51 662K
20260504T00Z_MSC_RDPS_AirTemp_IsbL-0970_RLatLon0.09_PT036H.grib2 2026-05-04 02:51 652K
20260504T00Z_MSC_RDPS_AirTemp_IsbL-0985_RLatLon0.09_PT036H.grib2 2026-05-04 02:51 638K
20260504T00Z_MSC_RDPS_AirTemp_IsbL-1000_RLatLon0.09_PT036H.grib2 2026-05-04 02:51 497K
20260504T00Z_MSC_RDPS_AirTemp_IsbL-1015_RLatLon0.09_PT036H.grib2 2026-05-04 02:51 503K
20260504T00Z_MSC_RDPS_Albedo_Sfc_RLatLon0.09_PT036H.grib2 2026-05-04 02:51 151K
20260504T00Z_MSC_RDPS_CAPE_Sfc_RLatLon0.09_PT036H.grib2 2026-05-04 02:51 1.7M
20260504T00Z_MSC_RDPS_CIN_Sfc_RLatLon0.09_PT036H.grib2 2026-05-04 02:51 1.1M
20260504T00Z_MSC_RDPS_CloudWater_EAtm_RLatLon0.09_PT036H.grib2 2026-05-04 02:51 221K
20260504T00Z_MSC_RDPS_ConvectivePrecip-Accum_Sfc_RLatLon0.09_PT036H.grib2 2026-05-04 02:51 946K
20260504T00Z_MSC_RDPS_DewPointDepression_AGL-2m_RLatLon0.09_PT036H.grib2 2026-05-04 02:51 406K
20260504T00Z_MSC_RDPS_DewPointDepression_IsbL-0001_RLatLon0.09_PT036H.grib2 2026-05-04 02:51 193
20260504T00Z_MSC_RDPS_DewPointDepression_IsbL-0005_RLatLon0.09_PT036H.grib2 2026-05-04 02:51 193
20260504T00Z_MSC_RDPS_DewPointDepression_IsbL-0010_RLatLon0.09_PT036H.grib2 2026-05-04 02:51 193
20260504T00Z_MSC_RDPS_DewPointDepression_IsbL-0020_RLatLon0.09_PT036H.grib2 2026-05-04 02:51 193
20260504T00Z_MSC_RDPS_DewPointDepression_IsbL-0030_RLatLon0.09_PT036H.grib2 2026-05-04 02:51 193
20260504T00Z_MSC_RDPS_DewPointDepression_IsbL-0050_RLatLon0.09_PT036H.grib2 2026-05-04 02:51 107K
20260504T00Z_MSC_RDPS_DewPointDepression_IsbL-0100_RLatLon0.09_PT036H.grib2 2026-05-04 02:51 117K
20260504T00Z_MSC_RDPS_DewPointDepression_IsbL-0150_RLatLon0.09_PT036H.grib2 2026-05-04 02:51 141K
20260504T00Z_MSC_RDPS_DewPointDepression_IsbL-0175_RLatLon0.09_PT036H.grib2 2026-05-04 02:51 175K
20260504T00Z_MSC_RDPS_DewPointDepression_IsbL-0200_RLatLon0.09_PT036H.grib2 2026-05-04 02:51 217K
20260504T00Z_MSC_RDPS_DewPointDepression_IsbL-0225_RLatLon0.09_PT036H.grib2 2026-05-04 02:51 253K
20260504T00Z_MSC_RDPS_DewPointDepression_IsbL-0250_RLatLon0.09_PT036H.grib2 2026-05-04 02:51 293K
20260504T00Z_MSC_RDPS_DewPointDepression_IsbL-0275_RLatLon0.09_PT036H.grib2 2026-05-04 02:51 304K
20260504T00Z_MSC_RDPS_DewPointDepression_IsbL-0300_RLatLon0.09_PT036H.grib2 2026-05-04 02:51 324K
20260504T00Z_MSC_RDPS_DewPointDepression_IsbL-0350_RLatLon0.09_PT036H.grib2 2026-05-04 02:51 329K
20260504T00Z_MSC_RDPS_DewPointDepression_IsbL-0400_RLatLon0.09_PT036H.grib2 2026-05-04 02:51 339K
20260504T00Z_MSC_RDPS_DewPointDepression_IsbL-0450_RLatLon0.09_PT036H.grib2 2026-05-04 02:51 345K
20260504T00Z_MSC_RDPS_DewPointDepression_IsbL-0500_RLatLon0.09_PT036H.grib2 2026-05-04 02:51 349K
20260504T00Z_MSC_RDPS_DewPointDepression_IsbL-0550_RLatLon0.09_PT036H.grib2 2026-05-04 02:51 359K
20260504T00Z_MSC_RDPS_DewPointDepression_IsbL-0600_RLatLon0.09_PT036H.grib2 2026-05-04 02:51 365K
20260504T00Z_MSC_RDPS_DewPointDepression_IsbL-0650_RLatLon0.09_PT036H.grib2 2026-05-04 02:51 370K
20260504T00Z_MSC_RDPS_DewPointDepression_IsbL-0700_RLatLon0.09_PT036H.grib2 2026-05-04 02:51 382K
20260504T00Z_MSC_RDPS_DewPointDepression_IsbL-0750_RLatLon0.09_PT036H.grib2 2026-05-04 02:51 404K
20260504T00Z_MSC_RDPS_DewPointDepression_IsbL-0800_RLatLon0.09_PT036H.grib2 2026-05-04 02:51 441K
20260504T00Z_MSC_RDPS_DewPointDepression_IsbL-0850_RLatLon0.09_PT036H.grib2 2026-05-04 02:51 477K
20260504T00Z_MSC_RDPS_DewPointDepression_IsbL-0875_RLatLon0.09_PT036H.grib2 2026-05-04 02:51 475K
20260504T00Z_MSC_RDPS_DewPointDepression_IsbL-0900_RLatLon0.09_PT036H.grib2 2026-05-04 02:51 463K
20260504T00Z_MSC_RDPS_DewPointDepression_IsbL-0925_RLatLon0.09_PT036H.grib2 2026-05-04 02:51 447K
20260504T00Z_MSC_RDPS_DewPointDepression_IsbL-0950_RLatLon0.09_PT036H.grib2 2026-05-04 02:51 441K
20260504T00Z_MSC_RDPS_DewPointDepression_IsbL-0970_RLatLon0.09_PT036H.grib2 2026-05-04 02:51 439K
20260504T00Z_MSC_RDPS_DewPointDepression_IsbL-0985_RLatLon0.09_PT036H.grib2 2026-05-04 02:51 436K
20260504T00Z_MSC_RDPS_DewPointDepression_IsbL-1000_RLatLon0.09_PT036H.grib2 2026-05-04 02:51 432K
20260504T00Z_MSC_RDPS_DewPointDepression_IsbL-1015_RLatLon0.09_PT036H.grib2 2026-05-04 02:51 425K
20260504T00Z_MSC_RDPS_DewPoint_AGL-2m_RLatLon0.09_PT036H.grib2 2026-05-04 02:51 397K
20260504T00Z_MSC_RDPS_DownwardLongwaveRadiationFlux-Accum_Sfc_RLatLon0.09_PT036H.grib2 2026-05-04 02:51 375K
20260504T00Z_MSC_RDPS_DownwardShortwaveRadiationFlux-Accum_NTAtm_RLatLon0.09_PT036H.grib2 2026-05-04 02:51 115K
20260504T00Z_MSC_RDPS_DownwardShortwaveRadiationFlux-Accum_Sfc_RLatLon0.09_PT036H.grib2 2026-05-04 02:51 540K
20260504T00Z_MSC_RDPS_FreezingRain-Accum12h_Sfc_RLatLon0.09_PT036H.grib2 2026-05-04 02:51 73K
20260504T00Z_MSC_RDPS_FreezingRain-Accum1h_Sfc_RLatLon0.09_PT036H.grib2 2026-05-04 02:51 45K
20260504T00Z_MSC_RDPS_FreezingRain-Accum24h_Sfc_RLatLon0.09_PT036H.grib2 2026-05-04 02:51 95K
20260504T00Z_MSC_RDPS_FreezingRain-Accum3h_Sfc_RLatLon0.09_PT036H.grib2 2026-05-04 02:51 52K
20260504T00Z_MSC_RDPS_FreezingRain-Accum6h_Sfc_RLatLon0.09_PT036H.grib2 2026-05-04 02:51 61K
20260504T00Z_MSC_RDPS_FreezingRain-Accum_Sfc_RLatLon0.09_PT036H.grib2 2026-05-04 02:51 138K
20260504T00Z_MSC_RDPS_GeopotentialHeight_IsbL-0001_RLatLon0.09_PT036H.grib2 2026-05-04 02:51 321K
20260504T00Z_MSC_RDPS_GeopotentialHeight_IsbL-0005_RLatLon0.09_PT036H.grib2 2026-05-04 02:51 313K
20260504T00Z_MSC_RDPS_GeopotentialHeight_IsbL-0010_RLatLon0.09_PT036H.grib2 2026-05-04 02:51 314K
20260504T00Z_MSC_RDPS_GeopotentialHeight_IsbL-0020_RLatLon0.09_PT036H.grib2 2026-05-04 02:51 412K
20260504T00Z_MSC_RDPS_GeopotentialHeight_IsbL-0030_RLatLon0.09_PT036H.grib2 2026-05-04 02:51 414K
20260504T00Z_MSC_RDPS_GeopotentialHeight_IsbL-0050_RLatLon0.09_PT036H.grib2 2026-05-04 02:51 317K
20260504T00Z_MSC_RDPS_GeopotentialHeight_IsbL-0100_RLatLon0.09_PT036H.grib2 2026-05-04 02:51 290K
20260504T00Z_MSC_RDPS_GeopotentialHeight_IsbL-0150_RLatLon0.09_PT036H.grib2 2026-05-04 02:51 231K
20260504T00Z_MSC_RDPS_GeopotentialHeight_IsbL-0175_RLatLon0.09_PT036H.grib2 2026-05-04 02:51 234K
20260504T00Z_MSC_RDPS_GeopotentialHeight_IsbL-0200_RLatLon0.09_PT036H.grib2 2026-05-04 02:51 238K
20260504T00Z_MSC_RDPS_GeopotentialHeight_IsbL-0225_RLatLon0.09_PT036H.grib2 2026-05-04 02:51 239K
20260504T00Z_MSC_RDPS_GeopotentialHeight_IsbL-0250_RLatLon0.09_PT036H.grib2 2026-05-04 02:51 240K
20260504T00Z_MSC_RDPS_GeopotentialHeight_IsbL-0275_RLatLon0.09_PT036H.grib2 2026-05-04 02:51 238K
20260504T00Z_MSC_RDPS_GeopotentialHeight_IsbL-0300_RLatLon0.09_PT036H.grib2 2026-05-04 02:51 238K
20260504T00Z_MSC_RDPS_GeopotentialHeight_IsbL-0350_RLatLon0.09_PT036H.grib2 2026-05-04 02:51 234K
20260504T00Z_MSC_RDPS_GeopotentialHeight_IsbL-0400_RLatLon0.09_PT036H.grib2 2026-05-04 02:51 231K
20260504T00Z_MSC_RDPS_GeopotentialHeight_IsbL-0450_RLatLon0.09_PT036H.grib2 2026-05-04 02:51 302K
20260504T00Z_MSC_RDPS_GeopotentialHeight_IsbL-0500_RLatLon0.09_PT036H.grib2 2026-05-04 02:51 297K
20260504T00Z_MSC_RDPS_GeopotentialHeight_IsbL-0550_RLatLon0.09_PT036H.grib2 2026-05-04 02:51 294K
20260504T00Z_MSC_RDPS_GeopotentialHeight_IsbL-0600_RLatLon0.09_PT036H.grib2 2026-05-04 02:51 263K
20260504T00Z_MSC_RDPS_GeopotentialHeight_IsbL-0650_RLatLon0.09_PT036H.grib2 2026-05-04 02:51 260K
20260504T00Z_MSC_RDPS_GeopotentialHeight_IsbL-0700_RLatLon0.09_PT036H.grib2 2026-05-04 02:51 258K
20260504T00Z_MSC_RDPS_GeopotentialHeight_IsbL-0750_RLatLon0.09_PT036H.grib2 2026-05-04 02:51 347K
20260504T00Z_MSC_RDPS_GeopotentialHeight_IsbL-0800_RLatLon0.09_PT036H.grib2 2026-05-04 02:51 356K
20260504T00Z_MSC_RDPS_GeopotentialHeight_IsbL-0850_RLatLon0.09_PT036H.grib2 2026-05-04 02:51 367K
20260504T00Z_MSC_RDPS_GeopotentialHeight_IsbL-0875_RLatLon0.09_PT036H.grib2 2026-05-04 02:51 368K
20260504T00Z_MSC_RDPS_GeopotentialHeight_IsbL-0900_RLatLon0.09_PT036H.grib2 2026-05-04 02:51 282K
20260504T00Z_MSC_RDPS_GeopotentialHeight_IsbL-0925_RLatLon0.09_PT036H.grib2 2026-05-04 02:51 285K
20260504T00Z_MSC_RDPS_GeopotentialHeight_IsbL-0950_RLatLon0.09_PT036H.grib2 2026-05-04 02:51 287K
20260504T00Z_MSC_RDPS_GeopotentialHeight_IsbL-0970_RLatLon0.09_PT036H.grib2 2026-05-04 02:51 290K
20260504T00Z_MSC_RDPS_GeopotentialHeight_IsbL-0985_RLatLon0.09_PT036H.grib2 2026-05-04 02:51 296K
20260504T00Z_MSC_RDPS_GeopotentialHeight_IsbL-1000_RLatLon0.09_PT036H.grib2 2026-05-04 02:51 306K
20260504T00Z_MSC_RDPS_GeopotentialHeight_IsbL-1015_RLatLon0.09_PT036H.grib2 2026-05-04 02:51 318K
20260504T00Z_MSC_RDPS_Humidex_Sfc_RLatLon0.09_PT036H.grib2 2026-05-04 02:51 2.4M
20260504T00Z_MSC_RDPS_IcePellets-Accum12h_Sfc_RLatLon0.09_PT036H.grib2 2026-05-04 02:51 17K
20260504T00Z_MSC_RDPS_IcePellets-Accum1h_Sfc_RLatLon0.09_PT036H.grib2 2026-05-04 02:51 9.6K
20260504T00Z_MSC_RDPS_IcePellets-Accum24h_Sfc_RLatLon0.09_PT036H.grib2 2026-05-04 02:51 24K
20260504T00Z_MSC_RDPS_IcePellets-Accum3h_Sfc_RLatLon0.09_PT036H.grib2 2026-05-04 02:51 11K
20260504T00Z_MSC_RDPS_IcePellets-Accum6h_Sfc_RLatLon0.09_PT036H.grib2 2026-05-04 02:51 14K
20260504T00Z_MSC_RDPS_IcePellets-Accum_Sfc_RLatLon0.09_PT036H.grib2 2026-05-04 02:51 28K
20260504T00Z_MSC_RDPS_KIndex_Sfc_RLatLon0.09_PT036H.grib2 2026-05-04 02:51 2.5M
20260504T00Z_MSC_RDPS_LatentHeatNetFlux_Sfc_RLatLon0.09_PT036H.grib2 2026-05-04 02:51 442K
20260504T00Z_MSC_RDPS_LiftedIndex-MU-VT_IsbL-0500_RLatLon0.09_PT036H.grib2 2026-05-04 02:51 2.4M
20260504T00Z_MSC_RDPS_NetLongwaveRadiationFlux-Accum_Sfc_RLatLon0.09_PT036H.grib2 2026-05-04 02:51 507K
20260504T00Z_MSC_RDPS_NetShortwaveRadiationFlux-Accum_Sfc_RLatLon0.09_PT036H.grib2 2026-05-04 02:51 537K
20260504T00Z_MSC_RDPS_PlanetaryBoundaryLayerHeight_Sfc_RLatLon0.09_PT036H.grib2 2026-05-04 02:51 1.2M
20260504T00Z_MSC_RDPS_Precip-Accum12h_Sfc_RLatLon0.09_PT036H.grib2 2026-05-04 02:51 1.8M
20260504T00Z_MSC_RDPS_Precip-Accum1h_Sfc_RLatLon0.09_PT036H.grib2 2026-05-04 02:51 1.3M
20260504T00Z_MSC_RDPS_Precip-Accum24h_Sfc_RLatLon0.09_PT036H.grib2 2026-05-04 02:51 2.0M
20260504T00Z_MSC_RDPS_Precip-Accum3h_Sfc_RLatLon0.09_PT036H.grib2 2026-05-04 02:51 1.5M
20260504T00Z_MSC_RDPS_Precip-Accum6h_Sfc_RLatLon0.09_PT036H.grib2 2026-05-04 02:51 1.6M
20260504T00Z_MSC_RDPS_Precip-Accum_Sfc_RLatLon0.09_PT036H.grib2 2026-05-04 02:51 2.0M
20260504T00Z_MSC_RDPS_PrecipRate_Sfc_RLatLon0.09_PT036H.grib2 2026-05-04 02:51 202K
20260504T00Z_MSC_RDPS_PrecipType-Instant_Sfc_RLatLon0.09_PT036H.grib2 2026-05-04 02:51 640K
20260504T00Z_MSC_RDPS_Pressure-Trend3h_Sfc_RLatLon0.09_PT036H.grib2 2026-05-04 02:51 1.2M
20260504T00Z_MSC_RDPS_Pressure_MSL_RLatLon0.09_PT036H.grib2 2026-05-04 02:51 330K
20260504T00Z_MSC_RDPS_Pressure_PVU-1.5_RLatLon0.09_PT036H.grib2 2026-05-04 02:51 2.5M
20260504T00Z_MSC_RDPS_Pressure_PVU-1_RLatLon0.09_PT036H.grib2 2026-05-04 02:51 2.4M
20260504T00Z_MSC_RDPS_Pressure_PVU-2_RLatLon0.09_PT036H.grib2 2026-05-04 02:51 2.4M
20260504T00Z_MSC_RDPS_Pressure_Sfc_RLatLon0.09_PT036H.grib2 2026-05-04 02:51 500K
20260504T00Z_MSC_RDPS_RadiativeTemp_Sfc_RLatLon0.09_PT036H.grib2 2026-05-04 02:51 300K
20260504T00Z_MSC_RDPS_Rain-Accum12h_Sfc_RLatLon0.09_PT036H.grib2 2026-05-04 02:51 1.2M
20260504T00Z_MSC_RDPS_Rain-Accum1h_Sfc_RLatLon0.09_PT036H.grib2 2026-05-04 02:51 682K
20260504T00Z_MSC_RDPS_Rain-Accum24h_Sfc_RLatLon0.09_PT036H.grib2 2026-05-04 02:51 1.5M
20260504T00Z_MSC_RDPS_Rain-Accum3h_Sfc_RLatLon0.09_PT036H.grib2 2026-05-04 02:51 807K
20260504T00Z_MSC_RDPS_Rain-Accum6h_Sfc_RLatLon0.09_PT036H.grib2 2026-05-04 02:51 1.1M
20260504T00Z_MSC_RDPS_Rain-Accum_Sfc_RLatLon0.09_PT036H.grib2 2026-05-04 02:51 1.6M
20260504T00Z_MSC_RDPS_RelativeHumidity_AGL-2m_RLatLon0.09_PT036H.grib2 2026-05-04 02:51 1.0M
20260504T00Z_MSC_RDPS_RelativeHumidity_IsbL-0010_RLatLon0.09_PT036H.grib2 2026-05-04 02:51 705K
20260504T00Z_MSC_RDPS_RelativeHumidity_IsbL-0020_RLatLon0.09_PT036H.grib2 2026-05-04 02:51 757K
20260504T00Z_MSC_RDPS_RelativeHumidity_IsbL-0030_RLatLon0.09_PT036H.grib2 2026-05-04 02:51 605K
20260504T00Z_MSC_RDPS_RelativeHumidity_IsbL-0050_RLatLon0.09_PT036H.grib2 2026-05-04 02:51 363K
20260504T00Z_MSC_RDPS_RelativeHumidity_IsbL-0100_RLatLon0.09_PT036H.grib2 2026-05-04 02:51 287K
20260504T00Z_MSC_RDPS_RelativeHumidity_IsbL-0150_RLatLon0.09_PT036H.grib2 2026-05-04 02:51 412K
20260504T00Z_MSC_RDPS_RelativeHumidity_IsbL-0175_RLatLon0.09_PT036H.grib2 2026-05-04 02:51 481K
20260504T00Z_MSC_RDPS_RelativeHumidity_IsbL-0200_RLatLon0.09_PT036H.grib2 2026-05-04 02:51 561K
20260504T00Z_MSC_RDPS_RelativeHumidity_IsbL-0225_RLatLon0.09_PT036H.grib2 2026-05-04 02:51 621K
20260504T00Z_MSC_RDPS_RelativeHumidity_IsbL-0250_RLatLon0.09_PT036H.grib2 2026-05-04 02:51 682K
20260504T00Z_MSC_RDPS_RelativeHumidity_IsbL-0275_RLatLon0.09_PT036H.grib2 2026-05-04 02:51 706K
20260504T00Z_MSC_RDPS_RelativeHumidity_IsbL-0300_RLatLon0.09_PT036H.grib2 2026-05-04 02:51 749K
20260504T00Z_MSC_RDPS_RelativeHumidity_IsbL-0350_RLatLon0.09_PT036H.grib2 2026-05-04 02:51 774K
20260504T00Z_MSC_RDPS_RelativeHumidity_IsbL-0400_RLatLon0.09_PT036H.grib2 2026-05-04 02:51 788K
20260504T00Z_MSC_RDPS_RelativeHumidity_IsbL-0450_RLatLon0.09_PT036H.grib2 2026-05-04 02:51 794K
20260504T00Z_MSC_RDPS_RelativeHumidity_IsbL-0500_RLatLon0.09_PT036H.grib2 2026-05-04 02:51 796K
20260504T00Z_MSC_RDPS_RelativeHumidity_IsbL-0550_RLatLon0.09_PT036H.grib2 2026-05-04 02:51 820K
20260504T00Z_MSC_RDPS_RelativeHumidity_IsbL-0600_RLatLon0.09_PT036H.grib2 2026-05-04 02:51 833K
20260504T00Z_MSC_RDPS_RelativeHumidity_IsbL-0650_RLatLon0.09_PT036H.grib2 2026-05-04 02:51 836K
20260504T00Z_MSC_RDPS_RelativeHumidity_IsbL-0700_RLatLon0.09_PT036H.grib2 2026-05-04 02:51 866K
20260504T00Z_MSC_RDPS_RelativeHumidity_IsbL-0750_RLatLon0.09_PT036H.grib2 2026-05-04 02:51 917K
20260504T00Z_MSC_RDPS_RelativeHumidity_IsbL-0800_RLatLon0.09_PT036H.grib2 2026-05-04 02:51 1.0M
20260504T00Z_MSC_RDPS_RelativeHumidity_IsbL-0850_RLatLon0.09_PT036H.grib2 2026-05-04 02:51 1.0M
20260504T00Z_MSC_RDPS_RelativeHumidity_IsbL-0875_RLatLon0.09_PT036H.grib2 2026-05-04 02:51 1.1M
20260504T00Z_MSC_RDPS_RelativeHumidity_IsbL-0900_RLatLon0.09_PT036H.grib2 2026-05-04 02:51 1.1M
20260504T00Z_MSC_RDPS_RelativeHumidity_IsbL-0925_RLatLon0.09_PT036H.grib2 2026-05-04 02:51 1.1M
20260504T00Z_MSC_RDPS_RelativeHumidity_IsbL-0950_RLatLon0.09_PT036H.grib2 2026-05-04 02:51 1.1M
20260504T00Z_MSC_RDPS_RelativeHumidity_IsbL-0970_RLatLon0.09_PT036H.grib2 2026-05-04 02:51 1.1M
20260504T00Z_MSC_RDPS_RelativeHumidity_IsbL-0985_RLatLon0.09_PT036H.grib2 2026-05-04 02:51 1.1M
20260504T00Z_MSC_RDPS_RelativeHumidity_IsbL-1000_RLatLon0.09_PT036H.grib2 2026-05-04 02:51 1.0M
20260504T00Z_MSC_RDPS_RelativeHumidity_IsbL-1015_RLatLon0.09_PT036H.grib2 2026-05-04 02:51 1.0M
20260504T00Z_MSC_RDPS_Runoff-Accum_Sfc_RLatLon0.09_PT036H.grib2 2026-05-04 02:51 64K
20260504T00Z_MSC_RDPS_SWEATIndex_Sfc_RLatLon0.09_PT036H.grib2 2026-05-04 02:51 2.4M
20260504T00Z_MSC_RDPS_SeeingIndex_EAtm_RLatLon0.09_PT036H.grib2 2026-05-04 02:51 1.0M
20260504T00Z_MSC_RDPS_SensibleHeatNetFlux_Sfc_RLatLon0.09_PT036H.grib2 2026-05-04 02:51 314K
20260504T00Z_MSC_RDPS_ShowalterIndex_IsbL-0500_RLatLon0.09_PT036H.grib2 2026-05-04 02:51 2.6M
20260504T00Z_MSC_RDPS_SkyTransparencyIndex_EAtm_RLatLon0.09_PT036H.grib2 2026-05-04 02:51 702K
20260504T00Z_MSC_RDPS_Snow-Accum12h_Sfc_RLatLon0.09_PT036H.grib2 2026-05-04 02:51 546K
20260504T00Z_MSC_RDPS_Snow-Accum1h_Sfc_RLatLon0.09_PT036H.grib2 2026-05-04 02:51 472K
20260504T00Z_MSC_RDPS_Snow-Accum24h_Sfc_RLatLon0.09_PT036H.grib2 2026-05-04 02:51 637K
20260504T00Z_MSC_RDPS_Snow-Accum3h_Sfc_RLatLon0.09_PT036H.grib2 2026-05-04 02:51 419K
20260504T00Z_MSC_RDPS_Snow-Accum6h_Sfc_RLatLon0.09_PT036H.grib2 2026-05-04 02:51 536K
20260504T00Z_MSC_RDPS_Snow-Accum_Sfc_RLatLon0.09_PT036H.grib2 2026-05-04 02:51 736K
20260504T00Z_MSC_RDPS_SnowDensity_Sfc_RLatLon0.09_PT036H.grib2 2026-05-04 02:51 171K
20260504T00Z_MSC_RDPS_SnowDepth_Sfc_RLatLon0.09_PT036H.grib2 2026-05-04 02:51 651K
20260504T00Z_MSC_RDPS_SoilTemp_DBS-0to10cm_RLatLon0.09_PT036H.grib2 2026-05-04 02:51 233K
20260504T00Z_MSC_RDPS_SoilTemp_Sfc_RLatLon0.09_PT036H.grib2 2026-05-04 02:51 271K
20260504T00Z_MSC_RDPS_SoilVolumetricIceContent_Sfc_RLatLon0.09_PT036H.grib2 2026-05-04 02:51 153K
20260504T00Z_MSC_RDPS_SoilVolumetricWaterContent_DBS-0to10cm_RLatLon0.09_PT036H.grib2 2026-05-04 02:51 277K
20260504T00Z_MSC_RDPS_SoilVolumetricWaterContent_DBS-0to1cm_RLatLon0.09_PT036H.grib2 2026-05-04 02:51 341K
20260504T00Z_MSC_RDPS_SpecificHumidity_AGL-120m_RLatLon0.09_PT036H.grib2 2026-05-04 02:51 497K
20260504T00Z_MSC_RDPS_SpecificHumidity_AGL-2m_RLatLon0.09_PT036H.grib2 2026-05-04 02:51 668K
20260504T00Z_MSC_RDPS_SpecificHumidity_AGL-40m_RLatLon0.09_PT036H.grib2 2026-05-04 02:51 504K
20260504T00Z_MSC_RDPS_SpecificHumidity_AGL-80m_RLatLon0.09_PT036H.grib2 2026-05-04 02:51 500K
20260504T00Z_MSC_RDPS_SpecificHumidity_IsbL-0001_RLatLon0.09_PT036H.grib2 2026-05-04 02:51 402K
20260504T00Z_MSC_RDPS_SpecificHumidity_IsbL-0005_RLatLon0.09_PT036H.grib2 2026-05-04 02:51 374K
20260504T00Z_MSC_RDPS_SpecificHumidity_IsbL-0010_RLatLon0.09_PT036H.grib2 2026-05-04 02:51 403K
20260504T00Z_MSC_RDPS_SpecificHumidity_IsbL-0020_RLatLon0.09_PT036H.grib2 2026-05-04 02:51 386K
20260504T00Z_MSC_RDPS_SpecificHumidity_IsbL-0030_RLatLon0.09_PT036H.grib2 2026-05-04 02:51 378K
20260504T00Z_MSC_RDPS_SpecificHumidity_IsbL-0050_RLatLon0.09_PT036H.grib2 2026-05-04 02:51 461K
20260504T00Z_MSC_RDPS_SpecificHumidity_IsbL-0100_RLatLon0.09_PT036H.grib2 2026-05-04 02:51 425K
20260504T00Z_MSC_RDPS_SpecificHumidity_IsbL-0150_RLatLon0.09_PT036H.grib2 2026-05-04 02:51 450K
20260504T00Z_MSC_RDPS_SpecificHumidity_IsbL-0175_RLatLon0.09_PT036H.grib2 2026-05-04 02:51 441K
20260504T00Z_MSC_RDPS_SpecificHumidity_IsbL-0200_RLatLon0.09_PT036H.grib2 2026-05-04 02:51 461K
20260504T00Z_MSC_RDPS_SpecificHumidity_IsbL-0225_RLatLon0.09_PT036H.grib2 2026-05-04 02:51 458K
20260504T00Z_MSC_RDPS_SpecificHumidity_IsbL-0250_RLatLon0.09_PT036H.grib2 2026-05-04 02:51 561K
20260504T00Z_MSC_RDPS_SpecificHumidity_IsbL-0275_RLatLon0.09_PT036H.grib2 2026-05-04 02:51 477K
20260504T00Z_MSC_RDPS_SpecificHumidity_IsbL-0300_RLatLon0.09_PT036H.grib2 2026-05-04 02:51 452K
20260504T00Z_MSC_RDPS_SpecificHumidity_IsbL-0350_RLatLon0.09_PT036H.grib2 2026-05-04 02:51 571K
20260504T00Z_MSC_RDPS_SpecificHumidity_IsbL-0400_RLatLon0.09_PT036H.grib2 2026-05-04 02:51 525K
20260504T00Z_MSC_RDPS_SpecificHumidity_IsbL-0450_RLatLon0.09_PT036H.grib2 2026-05-04 02:51 574K
20260504T00Z_MSC_RDPS_SpecificHumidity_IsbL-0500_RLatLon0.09_PT036H.grib2 2026-05-04 02:51 507K
20260504T00Z_MSC_RDPS_SpecificHumidity_IsbL-0550_RLatLon0.09_PT036H.grib2 2026-05-04 02:51 576K
20260504T00Z_MSC_RDPS_SpecificHumidity_IsbL-0600_RLatLon0.09_PT036H.grib2 2026-05-04 02:51 622K
20260504T00Z_MSC_RDPS_SpecificHumidity_IsbL-0650_RLatLon0.09_PT036H.grib2 2026-05-04 02:51 537K
20260504T00Z_MSC_RDPS_SpecificHumidity_IsbL-0700_RLatLon0.09_PT036H.grib2 2026-05-04 02:51 583K
20260504T00Z_MSC_RDPS_SpecificHumidity_IsbL-0750_RLatLon0.09_PT036H.grib2 2026-05-04 02:51 640K
20260504T00Z_MSC_RDPS_SpecificHumidity_IsbL-0800_RLatLon0.09_PT036H.grib2 2026-05-04 02:51 717K
20260504T00Z_MSC_RDPS_SpecificHumidity_IsbL-0850_RLatLon0.09_PT036H.grib2 2026-05-04 02:51 808K
20260504T00Z_MSC_RDPS_SpecificHumidity_IsbL-0875_RLatLon0.09_PT036H.grib2 2026-05-04 02:51 835K
20260504T00Z_MSC_RDPS_SpecificHumidity_IsbL-0900_RLatLon0.09_PT036H.grib2 2026-05-04 02:51 845K
20260504T00Z_MSC_RDPS_SpecificHumidity_IsbL-0925_RLatLon0.09_PT036H.grib2 2026-05-04 02:51 844K
20260504T00Z_MSC_RDPS_SpecificHumidity_IsbL-0950_RLatLon0.09_PT036H.grib2 2026-05-04 02:51 842K
20260504T00Z_MSC_RDPS_SpecificHumidity_IsbL-0970_RLatLon0.09_PT036H.grib2 2026-05-04 02:51 840K
20260504T00Z_MSC_RDPS_SpecificHumidity_IsbL-0985_RLatLon0.09_PT036H.grib2 2026-05-04 02:51 694K
20260504T00Z_MSC_RDPS_SpecificHumidity_IsbL-1000_RLatLon0.09_PT036H.grib2 2026-05-04 02:51 690K
20260504T00Z_MSC_RDPS_SpecificHumidity_IsbL-1015_RLatLon0.09_PT036H.grib2 2026-05-04 02:51 683K
20260504T00Z_MSC_RDPS_SpecificHumidity_Sfc_RLatLon0.09_PT036H.grib2 2026-05-04 02:51 297K
20260504T00Z_MSC_RDPS_StormRelativeHelicity_EtaL-10000_RLatLon0.09_PT036H.grib2 2026-05-04 02:51 1.1M
20260504T00Z_MSC_RDPS_StormSeverityIndex_EtaL-10000_RLatLon0.09_PT036H.grib2 2026-05-04 02:51 1.1M
20260504T00Z_MSC_RDPS_Thickness_IsbL-0850to0700_RLatLon0.09_PT036H.grib2 2026-05-04 02:51 179K
20260504T00Z_MSC_RDPS_Thickness_IsbL-1000to0500_RLatLon0.09_PT036H.grib2 2026-05-04 02:51 199K
20260504T00Z_MSC_RDPS_Thickness_IsbL-1000to0850_RLatLon0.09_PT036H.grib2 2026-05-04 02:51 264K
20260504T00Z_MSC_RDPS_TotalCloudCover_Sfc_RLatLon0.09_PT036H.grib2 2026-05-04 02:51 674K
20260504T00Z_MSC_RDPS_TotalTotalsIndex_Sfc_RLatLon0.09_PT036H.grib2 2026-05-04 02:51 2.4M
20260504T00Z_MSC_RDPS_UVIndex-ClearSky_Sfc_RLatLon0.09_PT036H.grib2 2026-05-04 02:51 145K
20260504T00Z_MSC_RDPS_UVIndex_Sfc_RLatLon0.09_PT036H.grib2 2026-05-04 02:51 356K
20260504T00Z_MSC_RDPS_UpwardLongwaveRadiationFlux_NTAtm_RLatLon0.09_PT036H.grib2 2026-05-04 02:51 493K
20260504T00Z_MSC_RDPS_UpwardShortwaveRadiationFlux_NTAtm_RLatLon0.09_PT036H.grib2 2026-05-04 02:51 316K
20260504T00Z_MSC_RDPS_VerticalVelocity_IsbL-0250_RLatLon0.09_PT036H.grib2 2026-05-04 02:51 560K
20260504T00Z_MSC_RDPS_VerticalVelocity_IsbL-0500_RLatLon0.09_PT036H.grib2 2026-05-04 02:51 556K
20260504T00Z_MSC_RDPS_VerticalVelocity_IsbL-0700_RLatLon0.09_PT036H.grib2 2026-05-04 02:51 562K
20260504T00Z_MSC_RDPS_VerticalVelocity_IsbL-0850_RLatLon0.09_PT036H.grib2 2026-05-04 02:51 715K
20260504T00Z_MSC_RDPS_VerticalWindShear_EtaL-6500_RLatLon0.09_PT036H.grib2 2026-05-04 02:51 1.2M
20260504T00Z_MSC_RDPS_WindChill_Sfc_RLatLon0.09_PT036H.grib2 2026-05-04 02:51 1.2M
20260504T00Z_MSC_RDPS_WindDir_AGL-10m_RLatLon0.09_PT036H.grib2 2026-05-04 02:51 1.0M
20260504T00Z_MSC_RDPS_WindDir_AGL-120m_RLatLon0.09_PT036H.grib2 2026-05-04 02:51 611K
20260504T00Z_MSC_RDPS_WindDir_AGL-40m_RLatLon0.09_PT036H.grib2 2026-05-04 02:51 643K
20260504T00Z_MSC_RDPS_WindDir_AGL-80m_RLatLon0.09_PT036H.grib2 2026-05-04 02:51 624K
20260504T00Z_MSC_RDPS_WindDir_IsbL-0001_RLatLon0.09_PT036H.grib2 2026-05-04 02:51 308K
20260504T00Z_MSC_RDPS_WindDir_IsbL-0005_RLatLon0.09_PT036H.grib2 2026-05-04 02:51 396K
20260504T00Z_MSC_RDPS_WindDir_IsbL-0010_RLatLon0.09_PT036H.grib2 2026-05-04 02:51 402K
20260504T00Z_MSC_RDPS_WindDir_IsbL-0020_RLatLon0.09_PT036H.grib2 2026-05-04 02:51 419K
20260504T00Z_MSC_RDPS_WindDir_IsbL-0030_RLatLon0.09_PT036H.grib2 2026-05-04 02:51 426K
20260504T00Z_MSC_RDPS_WindDir_IsbL-0050_RLatLon0.09_PT036H.grib2 2026-05-04 02:51 435K
20260504T00Z_MSC_RDPS_WindDir_IsbL-0100_RLatLon0.09_PT036H.grib2 2026-05-04 02:51 426K
20260504T00Z_MSC_RDPS_WindDir_IsbL-0150_RLatLon0.09_PT036H.grib2 2026-05-04 02:51 417K
20260504T00Z_MSC_RDPS_WindDir_IsbL-0175_RLatLon0.09_PT036H.grib2 2026-05-04 02:51 442K
20260504T00Z_MSC_RDPS_WindDir_IsbL-0200_RLatLon0.09_PT036H.grib2 2026-05-04 02:51 458K
20260504T00Z_MSC_RDPS_WindDir_IsbL-0225_RLatLon0.09_PT036H.grib2 2026-05-04 02:51 461K
20260504T00Z_MSC_RDPS_WindDir_IsbL-0250_RLatLon0.09_PT036H.grib2 2026-05-04 02:51 460K
20260504T00Z_MSC_RDPS_WindDir_IsbL-0275_RLatLon0.09_PT036H.grib2 2026-05-04 02:51 479K
20260504T00Z_MSC_RDPS_WindDir_IsbL-0300_RLatLon0.09_PT036H.grib2 2026-05-04 02:51 478K
20260504T00Z_MSC_RDPS_WindDir_IsbL-0350_RLatLon0.09_PT036H.grib2 2026-05-04 02:51 500K
20260504T00Z_MSC_RDPS_WindDir_IsbL-0400_RLatLon0.09_PT036H.grib2 2026-05-04 02:51 514K
20260504T00Z_MSC_RDPS_WindDir_IsbL-0450_RLatLon0.09_PT036H.grib2 2026-05-04 02:51 532K
20260504T00Z_MSC_RDPS_WindDir_IsbL-0500_RLatLon0.09_PT036H.grib2 2026-05-04 02:51 538K
20260504T00Z_MSC_RDPS_WindDir_IsbL-0550_RLatLon0.09_PT036H.grib2 2026-05-04 02:51 550K
20260504T00Z_MSC_RDPS_WindDir_IsbL-0600_RLatLon0.09_PT036H.grib2 2026-05-04 02:51 573K
20260504T00Z_MSC_RDPS_WindDir_IsbL-0650_RLatLon0.09_PT036H.grib2 2026-05-04 02:51 615K
20260504T00Z_MSC_RDPS_WindDir_IsbL-0700_RLatLon0.09_PT036H.grib2 2026-05-04 02:51 659K
20260504T00Z_MSC_RDPS_WindDir_IsbL-0750_RLatLon0.09_PT036H.grib2 2026-05-04 02:51 711K
20260504T00Z_MSC_RDPS_WindDir_IsbL-0800_RLatLon0.09_PT036H.grib2 2026-05-04 02:51 779K
20260504T00Z_MSC_RDPS_WindDir_IsbL-0850_RLatLon0.09_PT036H.grib2 2026-05-04 02:51 869K
20260504T00Z_MSC_RDPS_WindDir_IsbL-0875_RLatLon0.09_PT036H.grib2 2026-05-04 02:51 901K
20260504T00Z_MSC_RDPS_WindDir_IsbL-0900_RLatLon0.09_PT036H.grib2 2026-05-04 02:51 918K
20260504T00Z_MSC_RDPS_WindDir_IsbL-0925_RLatLon0.09_PT036H.grib2 2026-05-04 02:51 922K
20260504T00Z_MSC_RDPS_WindDir_IsbL-0950_RLatLon0.09_PT036H.grib2 2026-05-04 02:51 919K
20260504T00Z_MSC_RDPS_WindDir_IsbL-0970_RLatLon0.09_PT036H.grib2 2026-05-04 02:51 925K
20260504T00Z_MSC_RDPS_WindDir_IsbL-0985_RLatLon0.09_PT036H.grib2 2026-05-04 02:51 935K
20260504T00Z_MSC_RDPS_WindDir_IsbL-1000_RLatLon0.09_PT036H.grib2 2026-05-04 02:51 950K
20260504T00Z_MSC_RDPS_WindDir_IsbL-1015_RLatLon0.09_PT036H.grib2 2026-05-04 02:51 970K
20260504T00Z_MSC_RDPS_WindGust-Max_AGL-10m_RLatLon0.09_PT036H.grib2 2026-05-04 02:51 969K
20260504T00Z_MSC_RDPS_WindGust-Min_AGL-10m_RLatLon0.09_PT036H.grib2 2026-05-04 02:51 1.0M
20260504T00Z_MSC_RDPS_WindGust_AGL-10m_RLatLon0.09_PT036H.grib2 2026-05-04 02:51 1.0M
20260504T00Z_MSC_RDPS_WindSpeed_AGL-10m_RLatLon0.09_PT036H.grib2 2026-05-04 02:51 862K
20260504T00Z_MSC_RDPS_WindSpeed_AGL-120m_RLatLon0.09_PT036H.grib2 2026-05-04 02:51 556K
20260504T00Z_MSC_RDPS_WindSpeed_AGL-40m_RLatLon0.09_PT036H.grib2 2026-05-04 02:51 559K
20260504T00Z_MSC_RDPS_WindSpeed_AGL-80m_RLatLon0.09_PT036H.grib2 2026-05-04 02:51 557K
20260504T00Z_MSC_RDPS_WindSpeed_IsbL-0001_RLatLon0.09_PT036H.grib2 2026-05-04 02:51 336K
20260504T00Z_MSC_RDPS_WindSpeed_IsbL-0005_RLatLon0.09_PT036H.grib2 2026-05-04 02:51 387K
20260504T00Z_MSC_RDPS_WindSpeed_IsbL-0010_RLatLon0.09_PT036H.grib2 2026-05-04 02:51 403K
20260504T00Z_MSC_RDPS_WindSpeed_IsbL-0020_RLatLon0.09_PT036H.grib2 2026-05-04 02:51 425K
20260504T00Z_MSC_RDPS_WindSpeed_IsbL-0030_RLatLon0.09_PT036H.grib2 2026-05-04 02:51 326K
20260504T00Z_MSC_RDPS_WindSpeed_IsbL-0050_RLatLon0.09_PT036H.grib2 2026-05-04 02:51 357K
20260504T00Z_MSC_RDPS_WindSpeed_IsbL-0100_RLatLon0.09_PT036H.grib2 2026-05-04 02:51 481K
20260504T00Z_MSC_RDPS_WindSpeed_IsbL-0150_RLatLon0.09_PT036H.grib2 2026-05-04 02:51 382K
20260504T00Z_MSC_RDPS_WindSpeed_IsbL-0175_RLatLon0.09_PT036H.grib2 2026-05-04 02:51 429K
20260504T00Z_MSC_RDPS_WindSpeed_IsbL-0200_RLatLon0.09_PT036H.grib2 2026-05-04 02:51 441K
20260504T00Z_MSC_RDPS_WindSpeed_IsbL-0225_RLatLon0.09_PT036H.grib2 2026-05-04 02:51 446K
20260504T00Z_MSC_RDPS_WindSpeed_IsbL-0250_RLatLon0.09_PT036H.grib2 2026-05-04 02:51 449K
20260504T00Z_MSC_RDPS_WindSpeed_IsbL-0275_RLatLon0.09_PT036H.grib2 2026-05-04 02:51 465K
20260504T00Z_MSC_RDPS_WindSpeed_IsbL-0300_RLatLon0.09_PT036H.grib2 2026-05-04 02:51 463K
20260504T00Z_MSC_RDPS_WindSpeed_IsbL-0350_RLatLon0.09_PT036H.grib2 2026-05-04 02:51 475K
20260504T00Z_MSC_RDPS_WindSpeed_IsbL-0400_RLatLon0.09_PT036H.grib2 2026-05-04 02:51 479K
20260504T00Z_MSC_RDPS_WindSpeed_IsbL-0450_RLatLon0.09_PT036H.grib2 2026-05-04 02:51 465K
20260504T00Z_MSC_RDPS_WindSpeed_IsbL-0500_RLatLon0.09_PT036H.grib2 2026-05-04 02:51 465K
20260504T00Z_MSC_RDPS_WindSpeed_IsbL-0550_RLatLon0.09_PT036H.grib2 2026-05-04 02:51 464K
20260504T00Z_MSC_RDPS_WindSpeed_IsbL-0600_RLatLon0.09_PT036H.grib2 2026-05-04 02:51 591K
20260504T00Z_MSC_RDPS_WindSpeed_IsbL-0650_RLatLon0.09_PT036H.grib2 2026-05-04 02:51 610K
20260504T00Z_MSC_RDPS_WindSpeed_IsbL-0700_RLatLon0.09_PT036H.grib2 2026-05-04 02:51 632K
20260504T00Z_MSC_RDPS_WindSpeed_IsbL-0750_RLatLon0.09_PT036H.grib2 2026-05-04 02:51 665K
20260504T00Z_MSC_RDPS_WindSpeed_IsbL-0800_RLatLon0.09_PT036H.grib2 2026-05-04 02:51 720K
20260504T00Z_MSC_RDPS_WindSpeed_IsbL-0850_RLatLon0.09_PT036H.grib2 2026-05-04 02:51 835K
20260504T00Z_MSC_RDPS_WindSpeed_IsbL-0875_RLatLon0.09_PT036H.grib2 2026-05-04 02:51 860K
20260504T00Z_MSC_RDPS_WindSpeed_IsbL-0900_RLatLon0.09_PT036H.grib2 2026-05-04 02:51 875K
20260504T00Z_MSC_RDPS_WindSpeed_IsbL-0925_RLatLon0.09_PT036H.grib2 2026-05-04 02:51 886K
20260504T00Z_MSC_RDPS_WindSpeed_IsbL-0950_RLatLon0.09_PT036H.grib2 2026-05-04 02:51 886K
20260504T00Z_MSC_RDPS_WindSpeed_IsbL-0970_RLatLon0.09_PT036H.grib2 2026-05-04 02:51 883K
20260504T00Z_MSC_RDPS_WindSpeed_IsbL-0985_RLatLon0.09_PT036H.grib2 2026-05-04 02:51 874K
20260504T00Z_MSC_RDPS_WindSpeed_IsbL-1000_RLatLon0.09_PT036H.grib2 2026-05-04 02:51 869K
20260504T00Z_MSC_RDPS_WindSpeed_IsbL-1015_RLatLon0.09_PT036H.grib2 2026-05-04 02:51 861K
20260504T00Z_MSC_RDPS_WindU_AGL-10m_RLatLon0.09_PT036H.grib2 2026-05-04 02:51 441K
20260504T00Z_MSC_RDPS_WindU_AGL-120m_RLatLon0.09_PT036H.grib2 2026-05-04 02:51 430K
20260504T00Z_MSC_RDPS_WindU_AGL-40m_RLatLon0.09_PT036H.grib2 2026-05-04 02:51 551K
20260504T00Z_MSC_RDPS_WindU_AGL-80m_RLatLon0.09_PT036H.grib2 2026-05-04 02:51 431K
20260504T00Z_MSC_RDPS_WindU_IsbL-0001_RLatLon0.09_PT036H.grib2 2026-05-04 02:51 245K
20260504T00Z_MSC_RDPS_WindU_IsbL-0005_RLatLon0.09_PT036H.grib2 2026-05-04 02:51 329K
20260504T00Z_MSC_RDPS_WindU_IsbL-0010_RLatLon0.09_PT036H.grib2 2026-05-04 02:51 299K
20260504T00Z_MSC_RDPS_WindU_IsbL-0020_RLatLon0.09_PT036H.grib2 2026-05-04 02:51 317K
20260504T00Z_MSC_RDPS_WindU_IsbL-0030_RLatLon0.09_PT036H.grib2 2026-05-04 02:51 355K
20260504T00Z_MSC_RDPS_WindU_IsbL-0050_RLatLon0.09_PT036H.grib2 2026-05-04 02:51 385K
20260504T00Z_MSC_RDPS_WindU_IsbL-0100_RLatLon0.09_PT036H.grib2 2026-05-04 02:51 339K
20260504T00Z_MSC_RDPS_WindU_IsbL-0150_RLatLon0.09_PT036H.grib2 2026-05-04 02:51 398K
20260504T00Z_MSC_RDPS_WindU_IsbL-0175_RLatLon0.09_PT036H.grib2 2026-05-04 02:51 328K
20260504T00Z_MSC_RDPS_WindU_IsbL-0200_RLatLon0.09_PT036H.grib2 2026-05-04 02:51 338K
20260504T00Z_MSC_RDPS_WindU_IsbL-0225_RLatLon0.09_PT036H.grib2 2026-05-04 02:51 340K
20260504T00Z_MSC_RDPS_WindU_IsbL-0250_RLatLon0.09_PT036H.grib2 2026-05-04 02:51 341K
20260504T00Z_MSC_RDPS_WindU_IsbL-0275_RLatLon0.09_PT036H.grib2 2026-05-04 02:51 355K
20260504T00Z_MSC_RDPS_WindU_IsbL-0300_RLatLon0.09_PT036H.grib2 2026-05-04 02:51 352K
20260504T00Z_MSC_RDPS_WindU_IsbL-0350_RLatLon0.09_PT036H.grib2 2026-05-04 02:51 360K
20260504T00Z_MSC_RDPS_WindU_IsbL-0400_RLatLon0.09_PT036H.grib2 2026-05-04 02:51 364K
20260504T00Z_MSC_RDPS_WindU_IsbL-0450_RLatLon0.09_PT036H.grib2 2026-05-04 02:51 470K
20260504T00Z_MSC_RDPS_WindU_IsbL-0500_RLatLon0.09_PT036H.grib2 2026-05-04 02:51 471K
20260504T00Z_MSC_RDPS_WindU_IsbL-0550_RLatLon0.09_PT036H.grib2 2026-05-04 02:51 470K
20260504T00Z_MSC_RDPS_WindU_IsbL-0600_RLatLon0.09_PT036H.grib2 2026-05-04 02:51 479K
20260504T00Z_MSC_RDPS_WindU_IsbL-0650_RLatLon0.09_PT036H.grib2 2026-05-04 02:51 496K
20260504T00Z_MSC_RDPS_WindU_IsbL-0700_RLatLon0.09_PT036H.grib2 2026-05-04 02:51 501K
20260504T00Z_MSC_RDPS_WindU_IsbL-0750_RLatLon0.09_PT036H.grib2 2026-05-04 02:51 531K
20260504T00Z_MSC_RDPS_WindU_IsbL-0800_RLatLon0.09_PT036H.grib2 2026-05-04 02:51 579K
20260504T00Z_MSC_RDPS_WindU_IsbL-0850_RLatLon0.09_PT036H.grib2 2026-05-04 02:51 649K
20260504T00Z_MSC_RDPS_WindU_IsbL-0875_RLatLon0.09_PT036H.grib2 2026-05-04 02:51 662K
20260504T00Z_MSC_RDPS_WindU_IsbL-0900_RLatLon0.09_PT036H.grib2 2026-05-04 02:51 679K
20260504T00Z_MSC_RDPS_WindU_IsbL-0925_RLatLon0.09_PT036H.grib2 2026-05-04 02:51 684K
20260504T00Z_MSC_RDPS_WindU_IsbL-0950_RLatLon0.09_PT036H.grib2 2026-05-04 02:51 675K
20260504T00Z_MSC_RDPS_WindU_IsbL-0970_RLatLon0.09_PT036H.grib2 2026-05-04 02:51 670K
20260504T00Z_MSC_RDPS_WindU_IsbL-0985_RLatLon0.09_PT036H.grib2 2026-05-04 02:51 805K
20260504T00Z_MSC_RDPS_WindU_IsbL-1000_RLatLon0.09_PT036H.grib2 2026-05-04 02:51 802K
20260504T00Z_MSC_RDPS_WindU_IsbL-1015_RLatLon0.09_PT036H.grib2 2026-05-04 02:51 797K
20260504T00Z_MSC_RDPS_WindV_AGL-10m_RLatLon0.09_PT036H.grib2 2026-05-04 02:51 443K
20260504T00Z_MSC_RDPS_WindV_AGL-120m_RLatLon0.09_PT036H.grib2 2026-05-04 02:51 430K
20260504T00Z_MSC_RDPS_WindV_AGL-40m_RLatLon0.09_PT036H.grib2 2026-05-04 02:51 552K
20260504T00Z_MSC_RDPS_WindV_AGL-80m_RLatLon0.09_PT036H.grib2 2026-05-04 02:51 550K
20260504T00Z_MSC_RDPS_WindV_IsbL-0001_RLatLon0.09_PT036H.grib2 2026-05-04 02:51 248K
20260504T00Z_MSC_RDPS_WindV_IsbL-0005_RLatLon0.09_PT036H.grib2 2026-05-04 02:51 291K
20260504T00Z_MSC_RDPS_WindV_IsbL-0010_RLatLon0.09_PT036H.grib2 2026-05-04 02:51 302K
20260504T00Z_MSC_RDPS_WindV_IsbL-0020_RLatLon0.09_PT036H.grib2 2026-05-04 02:51 319K
20260504T00Z_MSC_RDPS_WindV_IsbL-0030_RLatLon0.09_PT036H.grib2 2026-05-04 02:51 357K
20260504T00Z_MSC_RDPS_WindV_IsbL-0050_RLatLon0.09_PT036H.grib2 2026-05-04 02:51 350K
20260504T00Z_MSC_RDPS_WindV_IsbL-0100_RLatLon0.09_PT036H.grib2 2026-05-04 02:51 338K
20260504T00Z_MSC_RDPS_WindV_IsbL-0150_RLatLon0.09_PT036H.grib2 2026-05-04 02:51 396K
20260504T00Z_MSC_RDPS_WindV_IsbL-0175_RLatLon0.09_PT036H.grib2 2026-05-04 02:51 325K
20260504T00Z_MSC_RDPS_WindV_IsbL-0200_RLatLon0.09_PT036H.grib2 2026-05-04 02:51 335K
20260504T00Z_MSC_RDPS_WindV_IsbL-0225_RLatLon0.09_PT036H.grib2 2026-05-04 02:51 339K
20260504T00Z_MSC_RDPS_WindV_IsbL-0250_RLatLon0.09_PT036H.grib2 2026-05-04 02:51 367K
20260504T00Z_MSC_RDPS_WindV_IsbL-0275_RLatLon0.09_PT036H.grib2 2026-05-04 02:51 354K
20260504T00Z_MSC_RDPS_WindV_IsbL-0300_RLatLon0.09_PT036H.grib2 2026-05-04 02:51 351K
20260504T00Z_MSC_RDPS_WindV_IsbL-0350_RLatLon0.09_PT036H.grib2 2026-05-04 02:51 359K
20260504T00Z_MSC_RDPS_WindV_IsbL-0400_RLatLon0.09_PT036H.grib2 2026-05-04 02:51 363K
20260504T00Z_MSC_RDPS_WindV_IsbL-0450_RLatLon0.09_PT036H.grib2 2026-05-04 02:51 365K
20260504T00Z_MSC_RDPS_WindV_IsbL-0500_RLatLon0.09_PT036H.grib2 2026-05-04 02:51 469K
20260504T00Z_MSC_RDPS_WindV_IsbL-0550_RLatLon0.09_PT036H.grib2 2026-05-04 02:51 469K
20260504T00Z_MSC_RDPS_WindV_IsbL-0600_RLatLon0.09_PT036H.grib2 2026-05-04 02:51 477K
20260504T00Z_MSC_RDPS_WindV_IsbL-0650_RLatLon0.09_PT036H.grib2 2026-05-04 02:51 477K
20260504T00Z_MSC_RDPS_WindV_IsbL-0700_RLatLon0.09_PT036H.grib2 2026-05-04 02:51 498K
20260504T00Z_MSC_RDPS_WindV_IsbL-0750_RLatLon0.09_PT036H.grib2 2026-05-04 02:51 540K
20260504T00Z_MSC_RDPS_WindV_IsbL-0800_RLatLon0.09_PT036H.grib2 2026-05-04 02:51 586K
20260504T00Z_MSC_RDPS_WindV_IsbL-0850_RLatLon0.09_PT036H.grib2 2026-05-04 02:51 636K
20260504T00Z_MSC_RDPS_WindV_IsbL-0875_RLatLon0.09_PT036H.grib2 2026-05-04 02:51 659K
20260504T00Z_MSC_RDPS_WindV_IsbL-0900_RLatLon0.09_PT036H.grib2 2026-05-04 02:51 671K
20260504T00Z_MSC_RDPS_WindV_IsbL-0925_RLatLon0.09_PT036H.grib2 2026-05-04 02:51 678K
20260504T00Z_MSC_RDPS_WindV_IsbL-0950_RLatLon0.09_PT036H.grib2 2026-05-04 02:51 674K
20260504T00Z_MSC_RDPS_WindV_IsbL-0970_RLatLon0.09_PT036H.grib2 2026-05-04 02:51 671K
20260504T00Z_MSC_RDPS_WindV_IsbL-0985_RLatLon0.09_PT036H.grib2 2026-05-04 02:51 808K
20260504T00Z_MSC_RDPS_WindV_IsbL-1000_RLatLon0.09_PT036H.grib2 2026-05-04 02:51 803K
20260504T00Z_MSC_RDPS_WindV_IsbL-1015_RLatLon0.09_PT036H.grib2 2026-05-04 02:51 797K